Location: 相模原市立博物館
(35.5593°N, 139.3931°E)
Time: 13:07:28
(UTC+09:00)

Envisat - Pass Details

Date: 29 October 2021
Orbit: 764 x 766 km, 98.2° (Epoch: 30 November)

Event Time Altitude Azimuth Distance (km) Brightness Sun altitude
Rises 05:12:45 0° 5° (N) 3,236 6.2 -10.4°
Reaches altitude 10° 05:15:07 10° 360° (N) 2,306 5.4 -10.0°
Maximum altitude 05:19:59 48° 287° (WNW) 998 3.2 -9.0°
Drops below altitude 10° 05:24:49 10° 214° (SW) 2,291 5.2 -8.0°
Sets 05:27:10 0° 209° (SSW) 3,213 6.0 -7.6°
